KE5KZS Weather Reports


Display with metric or nautical units.
time (UTC)temp
F
wind
direction
speed
MPH
gust
MPH
rain 1hr
in
rain 24hr
in
rain mn
in
humidity
%
barometer
mb
20260831231116 99 90 4.0 8.0 0.00 0.00 0.00 36 1011.8
20260831230016 100 90 3.0 9.0 0.00 0.00 0.00 35 1011.9
20260831225015 100 135 3.0 7.0 0.00 0.00 0.00 35 1012.0
20260831224016 100 90 4.0 9.0 0.00 0.00 0.00 35 1012.1
20260831223016 100 113 4.0 10.0 0.00 0.00 0.00 34 1012.1
20260831222015 101 113 4.0 7.0 0.00 0.00 0.00 35 1012.2
20260831221015 102 158 3.0 7.0 0.00 0.00 0.00 35 1012.1
20260831220015 102 90 4.0 9.0 0.00 0.00 0.00 34 1012.4
20260831215016 103 135 4.0 8.0 0.00 0.00 0.00 34 1012.5
20260831214015 103 203 4.0 8.0 0.00 0.00 0.00 33 1012.6
20260831213015 103 113 4.0 8.0 0.00 0.00 0.00 34 1012.7
20260831212016 103 158 4.0 9.0 0.00 0.00 0.00 34 1012.7
20260831211015 102 158 4.0 10.0 0.00 0.00 0.00 35 1012.8
20260831210016 102 135 4.0 9.0 0.00 0.00 0.00 34 1013.0
20260831205016 103 135 5.0 13.0 0.00 0.00 0.00 34 1013.2
20260831204056 104 158 4.0 11.0 0.00 0.00 0.00 33 1013.3
20260831203016 103 135 3.0 6.0 0.00 0.00 0.00 34 1013.5
20260831202016 102 158 4.0 10.0 0.00 0.00 0.00 36 1013.5
20260831201036 103 135 3.0 9.0 0.00 0.00 0.00 34 1013.6
20260831200016 102 113 3.0 8.0 0.00 0.00 0.00 36 1013.6
20260831195035 102 135 4.0 10.0 0.00 0.00 0.00 35 1013.9
20260831194015 101 135 5.0 11.0 0.00 0.00 0.00 37 1014.1
20260831193016 101 158 4.0 9.0 0.00 0.00 0.00 37 1014.3
20260831192016 100 113 4.0 10.0 0.00 0.00 0.00 37 1014.3
20260831191016 102 158 5.0 12.0 0.00 0.00 0.00 36 1014.3
20260831190016 102 180 5.0 11.0 0.00 0.00 0.00 36 1014.4
20260831185016 102 113 5.0 11.0 0.00 0.00 0.00 37 1014.5
20260831184015 102 158 5.0 12.0 0.00 0.00 0.00 37 1014.7
20260831183016 102 180 4.0 16.0 0.00 0.00 0.00 39 1014.9
20260831182016 101 158 4.0 11.0 0.00 0.00 0.00 40 1014.9
20260831181015 101 135 5.0 10.0 0.00 0.00 0.00 40 1015.0
20260831180016 101 135 3.0 7.0 0.00 0.00 0.00 40 1015.1
20260831175016 101 158 4.0 10.0 0.00 0.00 0.00 41 1015.5
20260831174016 101 180 5.0 11.0 0.00 0.00 0.00 41 1015.6
20260831173015 101 90 3.0 9.0 0.00 0.00 0.00 40 1015.5
20260831172035 100 180 4.0 10.0 0.00 0.00 0.00 41 1015.7
20260831171015 100 135 5.0 10.0 0.00 0.00 0.00 40 1015.7
20260831170015 100 225 3.0 6.0 0.00 0.00 0.00 43 1015.8
20260831165015 99 158 3.0 8.0 0.00 0.00 0.00 43 1015.8
20260831164016 99 180 3.0 8.0 0.00 0.00 0.00 42 1015.7
20260831163016 98 180 3.0 8.0 0.00 0.00 0.00 43 1016.0
20260831162015 98 203 3.0 10.0 0.00 0.00 0.00 45 1016.0
20260831161015 98 158 4.0 9.0 0.00 0.00 0.00 45 1016.0
20260831160015 97 225 3.0 9.0 0.00 0.00 0.00 46 1016.0
20260831155016 97 203 4.0 10.0 0.00 0.00 0.00 45 1016.0
20260831154016 96 180 3.0 7.0 0.00 0.00 0.00 47 1016.0
20260831153036 95 203 2.0 5.0 0.00 0.00 0.00 50 1015.9
20260831152016 94 158 3.0 6.0 0.00 0.00 0.00 51 1015.8
20260831151015 93 180 4.0 7.0 0.00 0.00 0.00 51 1015.7
20260831150015 93 180 3.0 7.0 0.00 0.00 0.00 51 1015.7
20260831145016 92 158 3.0 8.0 0.00 0.00 0.00 54 1015.8
20260831144056 91 158 3.0 8.0 0.00 0.00 0.00 56 1015.8
20260831143016 90 225 3.0 6.0 0.00 0.00 0.00 59 1015.7
20260831142015 89 180 3.0 6.0 0.00 0.00 0.00 61 1015.8
20260831141015 88 203 3.0 7.0 0.00 0.00 0.00 62 1015.7
20260831140016 87 158 3.0 7.0 0.00 0.00 0.00 63 1015.8
20260831135015 86 158 4.0 7.0 0.00 0.00 0.00 65 1015.5
20260831134035 85 180 2.0 5.0 0.00 0.00 0.00 68 1015.2
20260831133015 84 180 3.0 7.0 0.00 0.00 0.00 70 1015.1
20260831132015 83 203 3.0 6.0 0.00 0.00 0.00 71 1015.1
20260831131016 82 180 2.0 5.0 0.00 0.00 0.00 73 1015.0
20260831130015 81 203 2.0 6.0 0.00 0.00 0.00 74 1014.8
20260831125035 80 158 2.0 6.0 0.00 0.00 0.00 75 1014.7
20260831124015 80 158 1.0 4.0 0.00 0.00 0.00 75 1014.5
20260831123036 80 158 1.0 3.0 0.00 0.00 0.00 74 1014.4
20260831122015 80 158 2.0 5.0 0.00 0.00 0.00 74 1014.3
20260831121015 80 158 1.0 5.0 0.00 0.00 0.00 73 1014.2
20260831120015 80 158 2.0 5.0 0.00 0.00 0.00 73 1013.9
20260831115036 80 203 2.0 4.0 0.00 0.00 0.00 73 1014.0
20260831114016 80 180 2.0 6.0 0.00 0.00 0.00 72 1013.8
20260831113035 81 158 3.0 6.0 0.00 0.00 0.00 72 1013.8
20260831112516 81 158 1.0 4.0 0.00 0.00 0.00 71 1013.9
20260831111516 81 158 2.0 4.0 0.00 0.00 0.00 71 1013.7
20260831110516 81 158 2.0 5.0 0.00 0.00 0.00 70 1013.5
20260831105516 82 158 2.0 6.0 0.00 0.00 0.00 70 1013.5
20260831104515 82 158 3.0 6.0 0.00 0.00 0.00 69 1013.6
20260831103515 82 158 3.0 7.0 0.00 0.00 0.00 69 1013.7
20260831102516 82 158 3.0 7.0 0.00 0.00 0.00 68 1013.6
20260831101516 83 180 2.0 3.0 0.00 0.00 0.00 67 1013.5
20260831100535 83 180 2.0 4.0 0.00 0.00 0.00 67 1013.5
20260831095516 83 135 3.0 7.0 0.00 0.00 0.00 66 1013.4
20260831094515 83 203 3.0 7.0 0.00 0.00 0.00 67 1013.3
20260831093516 84 158 3.0 5.0 0.00 0.00 0.00 67 1013.3
20260831092516 84 180 3.0 8.0 0.00 0.00 0.00 65 1013.3
20260831091515 84 203 4.0 10.0 0.00 0.00 0.00 65 1013.2
20260831090516 84 180 3.0 7.0 0.00 0.00 0.00 65 1013.3
20260831085516 84 158 2.0 5.0 0.00 0.00 0.00 65 1013.3
20260831084516 84 203 3.0 8.0 0.00 0.00 0.00 65 1013.2
20260831083515 84 180 2.0 6.0 0.00 0.00 0.00 64 1013.3
20260831082515 84 203 2.0 6.0 0.00 0.00 0.00 63 1013.3
20260831081535 84 180 3.0 6.0 0.00 0.00 0.00 63 1013.2
20260831080515 84 158 3.0 6.0 0.00 0.00 0.00 61 1013.2
20260831075535 84 158 3.0 7.0 0.00 0.00 0.00 60 1013.1
20260831074516 84 180 3.0 6.0 0.00 0.00 0.00 59 1013.1
20260831073516 84 203 4.0 10.0 0.00 0.00 0.00 58 1013.1
20260831072515 85 180 2.0 7.0 0.00 0.00 0.00 58 1013.1
20260831071516 85 180 3.0 8.0 0.00 0.00 0.00 56 1013.1
20260831070516 85 158 4.0 8.0 0.00 0.00 0.00 57 1013.1
20260831065515 85 135 3.0 7.0 0.00 0.00 0.00 57 1013.1
20260831064515 85 158 2.0 6.0 0.00 0.00 0.00 57 1013.0
20260831063516 85 158 3.0 5.0 0.00 0.00 0.00 56 1013.1
20260831062515 85 158 3.0 5.0 0.00 0.00 0.00 56 1013.1
20260831061515 85 158 2.0 6.0 0.00 0.00 0.00 56 1013.0
20260831060516 86 135 2.0 5.0 0.00 0.00 0.00 56 1013.1
20260831055516 86 158 2.0 7.0 0.00 0.00 0.00 56 1013.1
20260831054535 86 158 2.0 5.0 0.00 0.00 0.00 55 1013.2
20260831053516 86 158 2.0 5.0 0.00 0.00 0.00 55 1013.2
20260831052515 87 158 1.0 3.0 0.00 0.00 0.00 54 1013.1
20260831051516 87 158 2.0 5.0 0.00 0.00 0.00 54 1012.9
20260831050516 87 180 2.0 6.0 0.00 0.00 0.00 54 1012.9
20260831045536 87 158 1.0 2.0 0.00 0.00 0.00 54 1012.9
20260831044516 87 135 2.0 6.0 0.00 0.00 0.00 54 1012.9
20260831044016 87 135 1.0 3.0 0.00 0.00 0.00 54 1012.9
20260831043016 88 135 1.0 3.0 0.00 0.00 0.00 54 1012.9
20260831042036 88 0.0 3.0 0.00 0.00 0.00 53 1012.8
20260831041016 88 0.0 2.0 0.00 0.00 0.00 52 1012.8
20260831040016 89 135 1.0 3.0 0.00 0.00 0.00 51 1012.7
20260831035016 89 135 2.0 3.0 0.00 0.00 0.00 50 1012.7
20260831034036 90 135 1.0 3.0 0.00 0.00 0.00 50 1012.8
20260831033016 90 135 1.0 3.0 0.00 0.00 0.00 49 1012.7
20260831032016 90 135 2.0 4.0 0.00 0.00 0.00 49 1012.5
20260831031016 90 135 2.0 7.0 0.00 0.00 0.00 48 1012.3
20260831030036 90 135 1.0 3.0 0.00 0.00 0.00 47 1012.2
20260831025016 91 0.0 2.0 0.00 0.00 0.00 46 1012.1
20260831024016 91 135 1.0 4.0 0.00 0.00 0.00 46 1012.1
20260831023036 92 135 1.0 3.0 0.00 0.00 0.00 45 1012.0
20260831022016 92 135 1.0 4.0 0.00 0.00 0.00 44 1011.8
20260831021016 92 135 2.0 4.0 0.00 0.00 0.00 43 1011.7
20260831020016 92 158 1.0 3.0 0.00 0.00 0.00 43 1011.4
20260831015016 93 158 1.0 3.0 0.00 0.00 0.00 42 1011.3
20260831014016 93 158 1.0 2.0 0.00 0.00 0.00 41 1011.3
20260831013016 94 158 1.0 3.0 0.00 0.00 0.00 41 1011.1
20260831012036 94 158 2.0 4.0 0.00 0.00 0.00 40 1010.9
20260831011016 95 113 2.0 6.0 0.00 0.00 0.00 40 1011.0
20260831010016 95 135 2.0 5.0 0.00 0.00 0.00 39 1010.9
20260831005016 96 135 2.0 5.0 0.00 0.00 0.00 38 1010.8
20260831004036 96 135 3.0 7.0 0.00 0.00 0.00 38 1010.8
20260831003036 97 158 3.0 10.0 0.00 0.00 0.00 37 1010.9
20260831002016 97 158 4.0 8.0 0.00 0.00 0.00 37 1010.9
20260831001016 98 135 4.0 9.0 0.00 0.00 0.00 36 1011.0
20260831000016 98 135 3.0 9.0 0.00 0.00 0.00 35 1011.1
20260830235016 98 158 3.0 8.0 0.00 0.00 0.00 34 1011.0
20260830234016 99 158 4.0 9.0 0.00 0.00 0.00 34 1010.9
20260830233016 99 158 4.0 11.0 0.00 0.00 0.00 34 1010.9
20260830232016 99 135 5.0 12.0 0.00 0.00 0.00 34 1011.0